Location: Erdweis
(48.5167°N, 15.3500°E)
Time: 00:35:11
(UTC+00:00)

Cosmos 2251 Rocket - Pass Details

Date: 18 September 2020
Orbit: 765 x 791 km, 74.0° (Epoch: 31 October)

Event Time Altitude Azimuth Distance (km) Brightness Sun altitude
Rises 20:06:14 0° 340° (NNW) 3,302 7.7 -28.5°
Reaches altitude 10° 20:08:45 10° 347° (NNW) 2,367 6.7 -28.8°
Enters shadow 20:12:46 40° 25° (NNE) 1,163 4.5 -29.3°
